Weather in Novyy Belyy Yar

Russia / Ulyanovsk Oblast     53°58′28″N   48°58′12″E
temp.,
°C
wind,
m/s
gust,
m/s
humid.,
%
clouds,
%
prec.,
mm/h
press.,
hPa
HPBL,
m
15 may, sat
sat1501:00+16s4572100 0.0 101951
04:00+14sse586777 0.0 1019102
07:00+15s5867100 0.0 1019114
10:00+19s695415 0.0 1020256
13:00+23s7114379 0.0 1020566
16:00+23s6114694 0.0 1019588
19:00+21s46555 0.0 101869
22:00+17s59629 0.0 101893
16 may, sun
sun1601:00+16s48605 0.0 1018104
04:00+15s48635 0.0 101899
07:00+15sse59705 0.0 1018130
10:00+20s69595 0.0 1018257
13:00+23s7104254 0.0 1018896
16:00+25ssw593915 0.0 10171480
19:00+22sw4552100 0.0 101758
22:00+19s2251100 0.0 101711
17 may, mon
mon1701:00+18s335692 0.0 101723
04:00+17ssw2257100 0.0 101714
07:00+18s2364100 0.0 101974
10:00+20s3457100 0.0 1019188
13:00+24s4647100 0.0 1019437
16:00+25se344578 0.0 1018409
19:00+22se1151100 0.0 101712
22:00+18sse4665100 0.0 101987
18 may, tue
tue1801:00+17s2266100 0.0 101826
04:00+16s226477 0.0 101715
07:00+17sse236656 0.0 101858
10:00+20se3455100 0.0 1018182
13:00+23se2546100 0.0 1017387
16:00+25sse2541100 0.0 1016456
19:00+23e224956 0.0 101619
22:00+19e335396 0.0 101628
19 may, wed
wed1901:00+17se2256100 0.0 101518
04:00+16se335336 0.0 101524
07:00+17ese345836 0.0 101491
10:00+21se47515 0.0 1014256
13:00+25se6104070 0.0 10121011
16:00+24se610461 0.0 1011648
19:00+20s6116237 0.1 1011254
22:00+16e3483100 0.9 101256